Time,TemperatureF,DewpointF,PressureIn,WindDirection,WindDirectionDegrees,WindSpeedMPH,WindSpeedGustMPH,Humidity,HourlyPrecipIn,Conditions,Clouds,dailyrainin,SoftwareType,DateUTC
2013-09-14 00:11:00,46.8,43.0,30.15,North,350,2.0,2.0,86,0.00,,,0.00,weatherlink.com 1.10,2013-09-14 04:11:00,
2013-09-14 00:26:00,46.7,43.0,30.15,North,350,1.0,2.0,86,0.00,,,0.00,weatherlink.com 1.10,2013-09-14 04:26:00,
2013-09-14 00:41:00,46.2,43.0,30.16,North,350,1.0,2.0,87,0.00,,,0.00,weatherlink.com 1.10,2013-09-14 04:41:00,
2013-09-14 00:56:00,46.3,43.0,30.16,NNW,332,0.0,2.0,87,0.00,,,0.00,weatherlink.com 1.10,2013-09-14 04:56:00,
2013-09-14 01:11:00,46.0,42.0,30.16,NNW,332,0.0,1.0,87,0.00,,,0.00,weatherlink.com 1.10,2013-09-14 05:11:00,
2013-09-14 01:26:00,45.4,42.0,30.15,NNW,332,0.0,1.0,87,0.00,,,0.00,weatherlink.com 1.10,2013-09-14 05:26:00,
2013-09-14 01:41:00,44.1,41.0,30.15,NNW,332,0.0,1.0,89,0.00,,,0.00,weatherlink.com 1.10,2013-09-14 05:41:00,
2013-09-14 01:56:00,42.9,40.0,30.16,NNW,332,0.0,0.0,90,0.00,,,0.00,weatherlink.com 1.10,2013-09-14 05:56:00,
2013-09-14 02:11:00,41.8,40.0,30.17,NNW,332,0.0,0.0,92,0.00,,,0.00,weatherlink.com 1.10,2013-09-14 06:11:00,
2013-09-14 02:26:00,40.6,39.0,30.17,NNW,332,0.0,1.0,93,0.00,,,0.00,weatherlink.com 1.10,2013-09-14 06:26:00,
2013-09-14 02:41:00,40.5,39.0,30.16,NNW,332,0.0,0.0,95,0.00,,,0.00,weatherlink.com 1.10,2013-09-14 06:41:00,
2013-09-14 02:56:00,41.1,40.0,30.17,NNW,332,0.0,0.0,96,0.00,,,0.00,weatherlink.com 1.10,2013-09-14 06:56:00,
2013-09-14 03:11:00,41.3,40.0,30.16,NNW,332,0.0,0.0,96,0.00,,,0.00,weatherlink.com 1.10,2013-09-14 07:11:00,
2013-09-14 03:26:00,41.4,40.0,30.17,NNW,332,0.0,0.0,96,0.00,,,0.00,weatherlink.com 1.10,2013-09-14 07:26:00,
2013-09-14 03:41:00,41.0,40.0,30.17,NNW,332,0.0,0.0,95,0.00,,,0.00,weatherlink.com 1.10,2013-09-14 07:41:00,
2013-09-14 03:56:00,40.8,40.0,30.17,NNW,332,0.0,0.0,95,0.00,,,0.00,weatherlink.com 1.10,2013-09-14 07:56:00,
2013-09-14 04:11:00,40.2,39.0,30.18,NNW,332,0.0,0.0,95,0.00,,,0.00,weatherlink.com 1.10,2013-09-14 08:11:00,
2013-09-14 04:26:00,40.8,40.0,30.18,NNW,332,0.0,1.0,96,0.00,,,0.00,weatherlink.com 1.10,2013-09-14 08:26:00,
2013-09-14 04:41:00,40.2,39.0,30.18,NNW,332,0.0,0.0,95,0.00,,,0.00,weatherlink.com 1.10,2013-09-14 08:41:00,
2013-09-14 04:56:00,40.5,40.0,30.18,NNW,332,0.0,0.0,96,0.00,,,0.00,weatherlink.com 1.10,2013-09-14 08:56:00,
2013-09-14 05:12:00,39.5,38.0,30.18,NNW,332,0.0,0.0,95,0.00,,,0.00,weatherlink.com 1.10,2013-09-14 09:12:00,
2013-09-14 05:27:00,39.7,39.0,30.18,NNW,332,0.0,0.0,96,0.00,,,0.00,weatherlink.com 1.10,2013-09-14 09:27:00,
2013-09-14 05:42:00,39.4,38.0,30.19,NNW,332,0.0,0.0,96,0.00,,,0.00,weatherlink.com 1.10,2013-09-14 09:42:00,
2013-09-14 05:57:00,39.0,38.0,30.19,NNW,332,0.0,0.0,96,0.00,,,0.00,weatherlink.com 1.10,2013-09-14 09:57:00,
2013-09-14 06:12:00,38.4,37.0,30.19,NNW,332,0.0,0.0,96,0.00,,,0.00,weatherlink.com 1.10,2013-09-14 10:12:00,
2013-09-14 06:27:00,38.5,38.0,30.19,NNW,332,0.0,0.0,97,0.00,,,0.00,weatherlink.com 1.10,2013-09-14 10:27:00,
2013-09-14 06:42:00,39.1,38.0,30.19,NNW,332,0.0,1.0,97,0.00,,,0.00,weatherlink.com 1.10,2013-09-14 10:42:00,
2013-09-14 06:57:00,39.0,38.0,30.20,NNW,332,0.0,0.0,97,0.00,,,0.00,weatherlink.com 1.10,2013-09-14 10:57:00,
2013-09-14 07:12:00,39.8,39.0,30.20,North,9,0.0,1.0,97,0.00,,,0.00,weatherlink.com 1.10,2013-09-14 11:12:00,
2013-09-14 07:27:00,38.4,37.0,30.20,North,9,0.0,0.0,96,0.00,,,0.00,weatherlink.com 1.10,2013-09-14 11:27:00,
2013-09-14 07:42:00,38.2,38.0,30.21,North,9,0.0,0.0,97,0.00,,,0.00,weatherlink.com 1.10,2013-09-14 11:42:00,
2013-09-14 07:57:00,38.9,38.0,30.22,North,9,0.0,0.0,97,0.00,,,0.00,weatherlink.com 1.10,2013-09-14 11:57:00,
2013-09-14 08:12:00,41.3,41.0,30.22,North,355,1.0,2.0,98,0.00,,,0.00,weatherlink.com 1.10,2013-09-14 12:12:00,
2013-09-14 08:27:00,43.3,42.0,30.22,NW,323,0.0,2.0,96,0.00,,,0.00,weatherlink.com 1.10,2013-09-14 12:27:00,
2013-09-14 08:42:00,45.3,43.0,30.23,NNE,20,0.0,2.0,91,0.00,,,0.00,weatherlink.com 1.10,2013-09-14 12:42:00,
2013-09-14 08:57:00,47.0,44.0,30.22,NNE,20,0.0,2.0,88,0.00,,,0.00,weatherlink.com 1.10,2013-09-14 12:57:00,
2013-09-14 09:12:00,48.7,44.0,30.22,North,355,0.0,2.0,85,0.00,,,0.00,weatherlink.com 1.10,2013-09-14 13:12:00,
2013-09-14 09:27:00,50.5,46.0,30.23,NE,46,0.0,3.0,83,0.00,,,0.00,weatherlink.com 1.10,2013-09-14 13:27:00,
2013-09-14 09:42:00,52.5,48.0,30.23,East,81,0.0,2.0,83,0.00,,,0.00,weatherlink.com 1.10,2013-09-14 13:42:00,
2013-09-14 09:57:00,54.4,47.0,30.24,ESE,115,0.0,3.0,77,0.00,,,0.00,weatherlink.com 1.10,2013-09-14 13:57:00,
2013-09-14 10:12:00,54.6,48.0,30.24,South,182,2.0,4.0,77,0.00,,,0.00,weatherlink.com 1.10,2013-09-14 14:12:00,
2013-09-14 10:27:00,55.2,46.0,30.24,ESE,113,1.0,5.0,72,0.00,,,0.00,weatherlink.com 1.10,2013-09-14 14:27:00,
2013-09-14 10:42:00,56.3,45.0,30.24,South,186,0.0,3.0,67,0.00,,,0.00,weatherlink.com 1.10,2013-09-14 14:42:00,
2013-09-14 10:57:00,56.8,45.0,30.24,North,10,1.0,4.0,64,0.00,,,0.00,weatherlink.com 1.10,2013-09-14 14:57:00,
2013-09-14 11:12:00,57.2,43.0,30.24,NW,319,2.0,4.0,59,0.00,,,0.00,weatherlink.com 1.10,2013-09-14 15:12:00,
2013-09-14 11:27:00,57.6,44.0,30.23,West,279,0.0,4.0,61,0.00,,,0.00,weatherlink.com 1.10,2013-09-14 15:27:00,
2013-09-14 11:42:00,59.4,41.0,30.24,South,178,3.0,7.0,50,0.00,,,0.00,weatherlink.com 1.10,2013-09-14 15:42:00,
2013-09-14 11:57:00,60.2,41.0,30.23,East,90,1.0,6.0,49,0.00,,,0.00,weatherlink.com 1.10,2013-09-14 15:57:00,
2013-09-14 12:12:00,60.3,39.0,30.23,NE,48,1.0,4.0,46,0.00,,,0.00,weatherlink.com 1.10,2013-09-14 16:12:00,
2013-09-14 12:27:00,61.0,40.0,30.23,SW,214,4.0,5.0,46,0.00,,,0.00,weatherlink.com 1.10,2013-09-14 16:27:00,
2013-09-14 12:42:00,61.9,38.0,30.23,WSW,247,0.0,5.0,42,0.00,,,0.00,weatherlink.com 1.10,2013-09-14 16:42:00,
2013-09-14 12:57:00,62.5,37.0,30.22,North,355,3.0,6.0,39,0.00,,,0.00,weatherlink.com 1.10,2013-09-14 16:57:00,
2013-09-14 13:12:00,62.3,36.0,30.22,NNE,17,2.0,7.0,38,0.00,,,0.00,weatherlink.com 1.10,2013-09-14 17:12:00,
2013-09-14 13:27:00,62.8,34.0,30.21,NNE,22,0.0,7.0,34,0.00,,,0.00,weatherlink.com 1.10,2013-09-14 17:27:00,
2013-09-14 13:42:00,64.7,37.0,30.21,ESE,113,1.0,5.0,36,0.00,,,0.00,weatherlink.com 1.10,2013-09-14 17:42:00,
2013-09-14 13:57:00,64.8,36.0,30.20,NE,56,3.0,7.0,35,0.00,,,0.00,weatherlink.com 1.10,2013-09-14 17:57:00,
2013-09-14 14:12:00,64.8,36.0,30.20,NNE,33,3.0,7.0,34,0.00,,,0.00,weatherlink.com 1.10,2013-09-14 18:12:00,
2013-09-14 14:27:00,64.6,37.0,30.19,WNW,293,3.0,6.0,36,0.00,,,0.00,weatherlink.com 1.10,2013-09-14 18:27:00,
2013-09-14 14:43:00,66.0,38.0,30.18,SW,232,7.0,9.0,36,0.00,,,0.00,weatherlink.com 1.10,2013-09-14 18:43:00,
2013-09-14 14:58:00,66.9,37.0,30.18,East,87,0.0,6.0,33,0.00,,,0.00,weatherlink.com 1.10,2013-09-14 18:58:00,
2013-09-14 15:13:00,67.5,37.0,30.17,WSW,245,3.0,9.0,32,0.00,,,0.00,weatherlink.com 1.10,2013-09-14 19:13:00,
2013-09-14 15:28:00,68.3,36.0,30.16,SE,134,6.0,7.0,31,0.00,,,0.00,weatherlink.com 1.10,2013-09-14 19:28:00,
2013-09-14 15:43:00,68.5,36.0,30.16,SSW,205,3.0,7.0,30,0.00,,,0.00,weatherlink.com 1.10,2013-09-14 19:43:00,
2013-09-14 15:58:00,68.1,36.0,30.15,NNE,30,0.0,6.0,31,0.00,,,0.00,weatherlink.com 1.10,2013-09-14 19:58:00,
2013-09-14 16:13:00,69.4,37.0,30.14,SSW,207,2.0,5.0,30,0.00,,,0.00,weatherlink.com 1.10,2013-09-14 20:13:00,
2013-09-14 16:28:00,69.4,34.0,30.14,WNW,303,1.0,5.0,27,0.00,,,0.00,weatherlink.com 1.10,2013-09-14 20:28:00,
2013-09-14 16:43:00,69.7,35.0,30.14,SSE,162,4.0,8.0,28,0.00,,,0.00,weatherlink.com 1.10,2013-09-14 20:43:00,
2013-09-14 16:58:00,70.1,34.0,30.14,NNW,343,3.0,5.0,27,0.00,,,0.00,weatherlink.com 1.10,2013-09-14 20:58:00,
2013-09-14 17:13:00,70.4,37.0,30.14,SW,236,0.0,3.0,29,0.00,,,0.00,weatherlink.com 1.10,2013-09-14 21:13:00,
2013-09-14 17:28:00,70.0,36.0,30.14,WNW,292,2.0,6.0,29,0.00,,,0.00,weatherlink.com 1.10,2013-09-14 21:28:00,
2013-09-14 17:43:00,70.0,36.0,30.13,ESE,105,0.0,4.0,29,0.00,,,0.00,weatherlink.com 1.10,2013-09-14 21:43:00,
2013-09-14 17:58:00,70.0,35.0,30.13,WSW,251,0.0,5.0,28,0.00,,,0.00,weatherlink.com 1.10,2013-09-14 21:58:00,
2013-09-14 18:13:00,70.5,36.0,30.13,NE,43,0.0,3.0,28,0.00,,,0.00,weatherlink.com 1.10,2013-09-14 22:13:00,
2013-09-14 18:28:00,70.7,35.0,30.13,SSE,157,0.0,5.0,27,0.00,,,0.00,weatherlink.com 1.10,2013-09-14 22:28:00,
2013-09-14 18:43:00,69.3,37.0,30.14,WSW,247,1.0,4.0,31,0.00,,,0.00,weatherlink.com 1.10,2013-09-14 22:43:00,
2013-09-14 18:58:00,69.2,35.0,30.13,West,266,0.0,2.0,28,0.00,,,0.00,weatherlink.com 1.10,2013-09-14 22:58:00,
2013-09-14 19:13:00,67.5,40.0,30.14,West,273,1.0,3.0,37,0.00,,,0.00,weatherlink.com 1.10,2013-09-14 23:13:00,
2013-09-14 19:28:00,64.8,43.0,30.14,West,273,0.0,1.0,45,0.00,,,0.00,weatherlink.com 1.10,2013-09-14 23:28:00,
2013-09-14 19:43:00,63.0,43.0,30.14,West,273,0.0,0.0,49,0.00,,,0.00,weatherlink.com 1.10,2013-09-14 23:43:00,
2013-09-14 19:58:00,60.1,43.0,30.13,WSW,250,0.0,3.0,53,0.00,,,0.00,weatherlink.com 1.10,2013-09-14 23:58:00,
2013-09-14 20:13:00,58.7,46.0,30.13,WSW,246,0.0,2.0,62,0.00,,,0.00,weatherlink.com 1.10,2013-09-15 00:13:00,
2013-09-14 20:28:00,56.8,44.0,30.13,WSW,246,0.0,0.0,62,0.00,,,0.00,weatherlink.com 1.10,2013-09-15 00:28:00,
2013-09-14 20:43:00,56.3,44.0,30.14,WSW,246,0.0,0.0,63,0.00,,,0.00,weatherlink.com 1.10,2013-09-15 00:43:00,
2013-09-14 20:58:00,55.2,44.0,30.14,WSW,246,1.0,2.0,65,0.00,,,0.00,weatherlink.com 1.10,2013-09-15 00:58:00,
2013-09-14 21:13:00,55.0,42.0,30.15,WSW,254,0.0,1.0,61,0.00,,,0.00,weatherlink.com 1.10,2013-09-15 01:13:00,
2013-09-14 21:28:00,54.2,44.0,30.14,WSW,254,0.0,0.0,68,0.00,,,0.00,weatherlink.com 1.10,2013-09-15 01:28:00,
2013-09-14 21:43:00,52.4,44.0,30.14,SSW,207,0.0,1.0,73,0.00,,,0.00,weatherlink.com 1.10,2013-09-15 01:43:00,
2013-09-14 21:58:00,51.4,44.0,30.14,SSW,207,0.0,1.0,75,0.00,,,0.00,weatherlink.com 1.10,2013-09-15 01:58:00,
2013-09-14 22:13:00,50.8,42.0,30.14,SSW,207,0.0,0.0,73,0.00,,,0.00,weatherlink.com 1.10,2013-09-15 02:13:00,
2013-09-14 22:28:00,51.2,42.0,30.14,SSW,207,0.0,0.0,70,0.00,,,0.00,weatherlink.com 1.10,2013-09-15 02:28:00,
2013-09-14 22:43:00,51.1,42.0,30.14,SSW,207,0.0,0.0,72,0.00,,,0.00,weatherlink.com 1.10,2013-09-15 02:43:00,
2013-09-14 22:58:00,51.3,42.0,30.14,SSW,207,0.0,0.0,70,0.00,,,0.00,weatherlink.com 1.10,2013-09-15 02:58:00,
2013-09-14 23:13:00,51.2,42.0,30.13,SSW,207,0.0,0.0,71,0.00,,,0.00,weatherlink.com 1.10,2013-09-15 03:13:00,
2013-09-14 23:28:00,50.5,43.0,30.13,SSW,207,0.0,0.0,74,0.00,,,0.00,weatherlink.com 1.10,2013-09-15 03:28:00,
2013-09-14 23:44:00,49.6,43.0,30.13,SSW,207,0.0,0.0,79,0.00,,,0.00,weatherlink.com 1.10,2013-09-15 03:44:00,
2013-09-14 23:59:00,48.9,45.0,30.13,South,180,0.0,0.0,85,0.00,,,0.00,weatherlink.com 1.10,2013-09-15 03:59:00,